Meteo Giornale » Osservazioni meteo Italia » Genova-Sestri

ore: 11:50 - Osservazioni Meteo Genova-Sestri
Lat. 44° 25' N Lon. 8° 51' E Alt. 2 metri s.l.m.

sereno Europe/Rome

30 °C

Sereno

Temp. 24 Ore

23 °C

34 °C

Nord-Est

22.2 Km/h

Dew point 16 °C

Umidità 42 %

Visibilità  10 Km

Il sole sorge alle ore 06:18

Il sole tramonta alle ore 20:42

Data e Ora Cielo e Fenomeni T °C DP °C Um. % Pres. hPa Vis. km Vento km/h
Oggi h: 11:50 sereno Sereno 30 16 42 1015 10 NE 22.2
Oggi h: 11:20 sereno Sereno 30 16 42 1015 10 NE 24
Oggi h: 10:50 sereno Sereno 29 16 45 1015 10 NE 27.8
Oggi h: 10:20 sereno Sereno 29 15 42 1015 10 NE 20.3
Oggi h: 09:50 sereno Sereno 28 15 45 1015 10 N/NE 18.5
Oggi h: 09:20 sereno Sereno 27 16 50 1015 10 N/NE 22.2
Oggi h: 08:50 sereno Sereno 25 15 53 1015 10 N/NE 24
Oggi h: 08:20 sereno Sereno 24 15 57 1014 10 N/NE 24
Oggi h: 07:50 sereno Sereno 24 15 57 1014 10 N/NE 25.9
Oggi h: 07:20 sereno Sereno 23 15 60 1014 10 N/NE 27.8
Oggi h: 06:50 sereno Sereno 23 15 60 1014 10 N/NE 31.5
Oggi h: 06:20 sereno Sereno 24 15 57 1014 10 N/NE 27.8
Oggi h: 05:50 sereno Sereno 24 15 57 1013 10 NE 27.8
Oggi h: 05:20 sereno Sereno 24 15 57 1014 10 N/NE 24
Oggi h: 04:50 sereno Sereno 25 15 53 1014 10 N/NE 20.3
Oggi h: 04:20 sereno Sereno 25 15 53 1014 10 N/NE 20.3
Oggi h: 03:50 sereno Sereno 25 16 57 1013 10 NE 20.3
Oggi h: 03:20 sereno Sereno 26 15 50 1014 10 N/NE 20.3
Oggi h: 02:50 sereno Sereno 25 17 61 1013 10 N/NE 24
Oggi h: 02:20 sereno Sereno 26 17 57 1013 10 N/NE 20.3
Oggi h: 01:50 sereno Sereno 26 17 57 1014 10 N/NE 14.8
Oggi h: 01:20 poco_nuvoloso Poco Nuvoloso 27 17 54 1014 10 N/NE 31.5
Oggi h: 00:50 poco_nuvoloso Poco Nuvoloso 27 18 57 1013 10 N/NE 25.9
Oggi h: 00:20 poco_nuvoloso Poco Nuvoloso 27 19 61 1014 10 NE 22.2
Ieri h: 23:50 poco_nuvoloso Poco Nuvoloso 27 18 57 1014 10 NE 24
Ieri h: 23:20 poco_nuvoloso Poco Nuvoloso 28 18 54 1014 10 N/NE 16.7
Ieri h: 22:50 coperto_temporali Temporale 29 17 48 1013 10 N/NE 27.8
Ieri h: 22:20 coperto_temporali Temporale 29 16 45 1012 10 NE 20.3
Ieri h: 21:50 nuvoloso_temporali Temporale nelle Vicinanze 29 17 48 1014 10 N 9.3
Ieri h: 21:20 poco_nuvoloso Poco Nuvoloso 30 17 45 1013 10 N 16.7
Ieri h: 20:50 poco_nuvoloso Poco Nuvoloso 30 17 45 1012 10 N 14.8
Ieri h: 20:20 poco_nuvoloso Poco Nuvoloso 30 18 48 1012 10 N 13
Ieri h: 19:50 poco_nuvoloso Poco Nuvoloso 31 18 45 1012 10 N 14.8
Ieri h: 19:20 sereno Sereno 31 18 45 1011 10 N/NE 16.7
Ieri h: 18:50 sereno Sereno 31 18 45 1011 10 N/NE 16.7
Ieri h: 18:20 sereno Sereno 32 18 43 1011 10 N/NE 18.5
Ieri h: 17:50 sereno Sereno 33 19 43 1011 10 N/NO 11.1
Ieri h: 17:20 sereno Sereno 33 18 41 1011 10 NE 11.1
Ieri h: 16:50 sereno Sereno 33 18 41 1011 10 NE 13
Ieri h: 16:20 sereno Sereno 33 18 41 1011 10 N 9.3
Ieri h: 15:50 sereno Sereno 33 17 38 1011 10 NE 20.3
Ieri h: 15:20 sereno Sereno 34 17 36 1011 10 E/NE 22.2
Ieri h: 14:50 sereno Sereno 34 17 36 1012 10 NE 16.7
Ieri h: 14:20 sereno Sereno 33 17 38 1012 10 NE 18.5
Ieri h: 13:50 sereno Sereno 32 16 38 1013 10 N/NE 22.2
Ieri h: 13:20 sereno Sereno 31 16 40 1013 10 NE 24
Ieri h: 12:50 sereno Sereno 31 16 40 1013 10 NE 24